CW7104 Weather Reports


time (UTC)temp
C
wind
direction
speed
KPH
gust
KPH
rain 1hr
cm
rain 24hr
cm
rain mn
cm
humidity
%
barometer
mb
20260510192904 24 8 4.8 12.9 0.00 0.00 0.00 36 1017.2
20260510192404 24 15 0.0 0.0 0.00 0.00 0.00 37 1017.2
20260510191906 23 10 0.0 1.6 0.00 0.00 0.00 40 1017.3
20260510190905 23 310 0.0 1.6 0.00 0.00 0.00 38 1017.3
20260510190404 23 8 3.2 19.3 0.00 0.00 0.00 41 1017.2
20260510185904 23 25 0.0 3.2 0.00 0.00 0.00 40 1017.2
20260510185404 23 345 0.0 1.6 0.00 0.00 0.00 41 1017.3
20260510184404 23 335 0.0 1.6 0.00 0.00 0.00 40 1017.3
20260510183904 23 4 0.0 1.6 0.00 0.00 0.00 41 1017.3
20260510183404 23 346 0.0 8.0 0.00 0.00 0.00 39 1017.3
20260510182904 23 20 1.6 14.5 0.00 0.00 0.00 40 1017.2
20260510181905 23 17 0.0 0.0 0.00 0.00 0.00 38 1017.2
20260510181404 23 347 0.0 0.0 0.00 0.00 0.00 40 1017.2
20260510180404 23 340 0.0 0.0 0.00 0.00 0.00 38 1017.3
20260510175905 22 9 0.0 0.0 0.00 0.00 0.00 40 1017.3
20260510175404 23 348 0.0 0.0 0.00 0.00 0.00 38 1017.2
20260510174904 23 316 0.0 0.0 0.00 0.00 0.00 39 1017.2
20260510173405 22 9 0.0 0.0 0.00 0.00 0.00 45 1017.6
20260510172904 22 319 0.0 0.0 0.00 0.00 0.00 40 1017.6
20260510172405 22 352 0.0 0.0 0.00 0.00 0.00 42 1017.5
20260510171904 22 358 0.0 0.0 0.00 0.00 0.00 41 1017.6
20260510171404 22 10 0.0 0.0 0.00 0.00 0.00 43 1017.6
20260510170904 22 9 0.0 0.0 0.00 0.00 0.00 42 1017.8
20260510170404 22 12 0.0 0.0 0.00 0.00 0.00 43 1017.8
20260510165904 21 345 0.0 0.0 0.00 0.00 0.00 42 1017.9
20260510165404 21 350 0.0 0.0 0.00 0.00 0.00 43 1017.9
20260510164904 21 357 0.0 0.0 0.00 0.00 0.00 45 1017.9
20260510164404 21 6 0.0 0.0 0.00 0.00 0.00 45 1017.7
20260510163904 22 320 0.0 0.0 0.00 0.00 0.00 45 1017.6
20260510163404 21 12 0.0 0.0 0.00 0.00 0.00 47 1017.5
20260510162905 21 42 0.0 0.0 0.00 0.00 0.00 48 1017.5
20260510162404 21 9 0.0 0.0 0.00 0.00 0.00 48 1017.5
20260510161904 21 306 0.0 0.0 0.00 0.00 0.00 48 1017.5
20260510161404 21 354 0.0 0.0 0.00 0.00 0.00 49 1017.4
20260510160904 21 31 0.0 0.0 0.00 0.00 0.00 51 1017.4
20260510160404 20 20 0.0 0.0 0.00 0.00 0.00 51 1017.4
20260510155904 20 7 0.0 0.0 0.00 0.00 0.00 52 1017.3
20260510155403 20 8 0.0 0.0 0.00 0.00 0.00 52 1017.3
20260510154904 20 9 0.0 0.0 0.00 0.00 0.00 55 1017.1
20260510154404 20 7 0.0 0.0 0.00 0.00 0.00 56 1017.2
20260510153904 20 5 0.0 0.0 0.00 0.00 0.00 54 1017.2
20260510153405 20 10 0.0 0.0 0.00 0.00 0.00 53 1017.0
20260510152904 20 0 0.0 0.0 0.00 0.00 0.00 53 1017.1
20260510152404 20 43 0.0 0.0 0.00 0.00 0.00 53 1016.9
20260510151904 21 44 0.0 0.0 0.00 0.00 0.00 53 1016.8
20260510151406 21 37 0.0 0.0 0.00 0.00 0.00 51 1016.7
20260510150404 21 25 0.0 0.0 0.00 0.00 0.00 54 1016.5
20260510145904 21 29 0.0 0.0 0.00 0.00 0.00 54 1016.4
20260510145404 21 54 0.0 0.0 0.00 0.00 0.00 54 1016.4
20260510144904 21 43 0.0 0.0 0.00 0.00 0.00 55 1016.3
20260510144403 20 23 0.0 0.0 0.00 0.00 0.00 55 1016.1
20260510143904 20 7 0.0 0.0 0.00 0.00 0.00 55 1016.2
20260510143404 20 4 0.0 0.0 0.00 0.00 0.00 58 1016.0
20260510142404 19 18 0.0 0.0 0.00 0.00 0.00 58 1015.9
20260510141904 19 21 0.0 0.0 0.00 0.00 0.00 58 1016.1
20260510141404 19 8 0.0 0.0 0.00 0.00 0.00 60 1016.1
20260510140403 18 331 0.0 0.0 0.00 0.00 0.00 62 1016.3
20260510135904 18 330 0.0 0.0 0.00 0.00 0.00 62 1016.2
20260510134903 18 354 0.0 0.0 0.00 0.00 0.00 62 1016.1
20260510134404 18 351 0.0 0.0 0.00 0.00 0.00 64 1016.0
20260510133904 18 10 0.0 0.0 0.00 0.00 0.00 66 1015.8
20260510133404 18 6 0.0 0.0 0.00 0.00 0.00 66 1015.8
20260510132904 18 0 0.0 0.0 0.00 0.00 0.00 68 1015.9
20260510132404 17 13 0.0 0.0 0.00 0.00 0.00 69 1015.9
20260510131904 17 20 0.0 0.0 0.00 0.00 0.00 70 1015.9
20260510131404 17 26 0.0 0.0 0.00 0.00 0.00 72 1015.8
20260510130403 17 23 0.0 0.0 0.00 0.00 0.00 73 1015.6
20260510125904 17 24 0.0 0.0 0.00 0.00 0.00 73 1015.6
20260510125404 16 21 0.0 0.0 0.00 0.00 0.00 73 1015.6
20260510124403 16 335 0.0 0.0 0.00 0.00 0.00 73 1015.6
20260510123404 16 0 0.0 0.0 0.00 0.00 0.00 75 1015.5
20260510122904 16 306 0.0 0.0 0.00 0.00 0.00 75 1015.4
20260510122403 16 296 0.0 0.0 0.00 0.00 0.00 75 1015.4
20260510121904 16 277 0.0 0.0 0.00 0.00 0.00 75 1015.4
20260510121404 16 343 0.0 0.0 0.00 0.00 0.00 76 1015.3
20260510120903 16 301 0.0 0.0 0.00 0.00 0.00 76 1015.2
20260510120404 16 278 0.0 0.0 0.00 0.00 0.00 76 1015.1
20260510115903 16 330 0.0 0.0 0.00 0.00 0.00 77 1014.9
20260510115403 16 289 0.0 0.0 0.00 0.00 0.00 78 1014.5
20260510114404 15 273 0.0 0.0 0.00 0.00 0.00 80 1014.3
20260510113404 14 271 0.0 0.0 0.00 0.00 0.00 80 1014.1
20260510112903 13 271 0.0 0.0 0.00 0.00 0.00 79 1014.2
20260510111903 13 271 0.0 0.0 0.00 0.00 0.00 78 1014.0
20260510111404 13 271 0.0 0.0 0.00 0.00 0.00 77 1013.9
20260510110903 13 271 0.0 0.0 0.00 0.00 0.00 77 1013.7
20260510110404 13 271 0.0 0.0 0.00 0.00 0.00 78 1013.6
20260510105904 14 271 0.0 0.0 0.00 0.00 0.00 77 1013.5
20260510104904 14 271 0.0 0.0 0.00 0.00 0.00 77 1013.4
20260510104403 14 271 0.0 0.0 0.00 0.00 0.00 76 1013.3
20260510103904 14 271 0.0 0.0 0.00 0.00 0.00 76 1013.1
20260510103403 14 271 0.0 0.0 0.00 0.00 0.00 75 1013.1
20260510102904 15 271 0.0 0.0 0.00 0.00 0.00 75 1013.1
20260510102404 15 271 0.0 0.0 0.00 0.00 0.00 75 1012.9
20260510101903 15 271 0.0 0.0 0.00 0.00 0.00 75 1012.8
20260510101404 15 271 0.0 0.0 0.00 0.00 0.00 74 1012.8
20260510100903 15 271 0.0 0.0 0.00 0.00 0.00 74 1012.7
20260510100406 15 271 0.0 0.0 0.00 0.00 0.00 74 1012.6
20260510095905 15 271 0.0 0.0 0.00 0.00 0.00 73 1012.6
20260510095406 15 271 0.0 0.0 0.00 0.00 0.00 73 1012.5
20260510094905 16 271 0.0 0.0 0.00 0.00 0.00 72 1012.4
20260510094405 16 271 0.0 0.0 0.00 0.00 0.00 72 1012.3
20260510093405 16 271 0.0 0.0 0.00 0.00 0.00 71 1012.2
20260510092905 16 271 0.0 0.0 0.00 0.00 0.00 70 1012.2
20260510092405 16 271 0.0 0.0 0.00 0.00 0.00 70 1012.1
20260510091905 16 271 0.0 0.0 0.00 0.00 0.00 70 1012.1
20260510091405 16 271 0.0 0.0 0.00 0.00 0.00 70 1012.1
20260510090405 17 271 0.0 0.0 0.00 0.00 0.00 69 1012.3
20260510085905 17 271 0.0 0.0 0.00 0.00 0.00 68 1012.5
20260510084905 17 278 0.0 0.0 0.00 0.00 0.00 68 1012.4
20260510084406 17 267 0.0 0.0 0.00 0.00 0.00 68 1012.6
20260510083905 17 267 0.0 0.0 0.00 0.00 0.00 67 1012.7
20260510083406 17 267 0.0 0.0 0.00 0.00 0.00 67 1012.5
20260510082905 17 267 0.0 0.0 0.00 0.00 0.00 66 1012.6
20260510081905 17 287 0.0 0.0 0.00 0.00 0.00 65 1012.6
20260510080905 17 274 0.0 0.0 0.00 0.00 0.00 63 1012.4
20260510080405 17 317 0.0 0.0 0.00 0.00 0.00 63 1012.4
20260510075905 17 330 0.0 0.0 0.00 0.00 0.00 62 1012.4
20260510075405 17 258 0.0 0.0 0.00 0.00 0.00 62 1012.3
20260510074905 17 299 0.0 0.0 0.00 0.00 0.00 62 1012.2
20260510074406 17 307 0.0 0.0 0.00 0.00 0.00 62 1012.2
20260510073905 17 238 0.0 0.0 0.00 0.00 0.00 62 1012.3
20260510072905 17 357 0.0 0.0 0.00 0.00 0.00 62 1012.2
20260510071905 16 347 0.0 0.0 0.00 0.00 0.00 63 1012.4
20260510071405 16 332 0.0 0.0 0.00 0.00 0.00 66 1012.2
20260510070406 15 207 0.0 0.0 0.00 0.00 0.00 70 1011.4
20260510065905 15 207 0.0 0.0 0.00 0.00 0.00 70 1011.3
20260510065405 15 213 0.0 0.0 0.00 0.00 0.00 70 1011.2
20260510064905 15 213 0.0 0.0 0.00 0.00 0.00 70 1011.3
20260510063405 15 213 0.0 0.0 0.00 0.00 0.00 72 1011.1
20260510062905 15 213 0.0 0.0 0.00 0.00 0.00 72 1011.0
20260510062405 15 213 0.0 0.0 0.00 0.00 0.00 73 1011.0
20260510061905 15 213 0.0 0.0 0.00 0.00 0.00 74 1011.0
20260510061405 15 214 0.0 0.0 0.00 0.00 0.00 75 1011.1
20260510060905 15 214 0.0 0.0 0.00 0.00 0.00 75 1011.2
20260510055906 15 214 0.0 0.0 0.00 0.00 0.00 75 1011.1
20260510055405 15 214 0.0 0.0 0.00 0.00 0.00 75 1011.2
20260510054905 15 214 0.0 0.0 0.00 0.00 0.00 75 1011.1
20260510054405 15 214 0.0 0.0 0.00 0.00 0.00 75 1011.1
20260510053905 15 214 0.0 0.0 0.00 0.00 0.00 74 1011.2
20260510052905 15 214 0.0 0.0 0.00 0.00 0.00 74 1010.9
20260510052405 15 214 0.0 0.0 0.00 0.00 0.00 74 1010.9
20260510051905 15 214 0.0 0.0 0.00 0.00 0.00 74 1010.9
20260510051405 15 214 0.0 0.0 0.00 0.00 0.00 74 1010.9
20260510050905 15 214 0.0 0.0 0.00 0.00 0.00 73 1010.9
20260510050405 15 214 0.0 0.0 0.00 0.00 0.00 73 1010.9
20260510045905 15 214 0.0 0.0 0.00 0.00 0.00 72 1010.8
20260510045405 15 214 0.0 0.0 0.00 0.00 0.00 72 1010.8
20260510044905 16 214 0.0 0.0 0.00 0.00 0.00 72 1010.9
20260510044405 16 214 0.0 0.0 0.00 0.00 0.00 72 1011.2
20260510043404 16 214 0.0 0.0 0.00 0.00 0.00 71 1011.2
20260510042405 16 214 0.0 0.0 0.00 0.00 0.00 70 1011.2
20260510041904 16 214 0.0 0.0 0.00 0.00 0.00 70 1011.2
20260510040405 16 214 0.0 0.0 0.00 0.00 0.00 69 1011.2
20260510035904 16 214 0.0 0.0 0.00 0.00 0.00 69 1011.2
20260510035405 17 214 0.0 0.0 0.00 0.00 0.00 68 1011.2
20260510034905 17 214 0.0 0.0 0.00 0.00 0.00 68 1011.1
20260510034405 17 214 0.0 0.0 0.00 0.00 0.00 67 1011.0
20260510033904 17 214 0.0 0.0 0.00 0.00 0.00 67 1011.1
20260510033405 17 214 0.0 0.0 0.00 0.00 0.00 66 1011.0
20260510032405 17 214 0.0 0.0 0.00 0.00 0.00 66 1011.0
20260510031905 17 214 0.0 0.0 0.00 0.00 0.00 66 1011.1
20260510031405 18 214 0.0 0.0 0.00 0.00 0.00 65 1011.1
20260510030405 18 214 0.0 0.0 0.00 0.00 0.00 64 1011.1
20260510025905 18 214 0.0 0.0 0.00 0.00 0.00 64 1011.0
20260510025405 18 214 0.0 0.0 0.00 0.00 0.00 63 1011.0
20260510024905 18 214 0.0 0.0 0.00 0.00 0.00 63 1010.9
20260510023405 18 222 0.0 0.0 0.00 0.00 0.00 62 1010.8
20260510022405 19 222 0.0 0.0 0.00 0.00 0.00 61 1010.8
20260510021904 19 222 0.0 0.0 0.00 0.00 0.00 60 1010.7
20260510021405 19 222 0.0 0.0 0.00 0.00 0.00 60 1010.7
20260510020904 19 222 0.0 0.0 0.00 0.00 0.00 59 1010.6
20260510020405 20 222 0.0 0.0 0.00 0.00 0.00 59 1010.6
20260510015905 20 222 0.0 0.0 0.00 0.00 0.00 59 1010.5
20260510015405 20 222 0.0 0.0 0.00 0.00 0.00 58 1010.4
20260510014905 20 222 0.0 0.0 0.00 0.00 0.00 57 1010.3
20260510014405 20 222 0.0 0.0 0.00 0.00 0.00 56 1010.3
20260510013905 20 222 0.0 0.0 0.00 0.00 0.00 55 1010.2
20260510013405 21 223 0.0 0.0 0.00 0.00 0.00 54 1010.1
20260510012905 21 223 0.0 0.0 0.00 0.00 0.00 53 1010.0
20260510012405 21 223 0.0 0.0 0.00 0.00 0.00 53 1009.9
20260510011904 21 223 0.0 0.0 0.00 0.00 0.00 52 1009.8
20260510011405 21 223 0.0 0.0 0.00 0.00 0.00 51 1009.7
20260510010905 22 223 0.0 0.0 0.00 0.00 0.00 50 1009.8
20260510010405 22 223 0.0 0.0 0.00 0.00 0.00 49 1009.7
20260510005904 22 223 0.0 0.0 0.00 0.00 0.00 49 1009.7
20260510005405 22 223 0.0 0.0 0.00 0.00 0.00 47 1009.6
20260510004405 23 223 0.0 0.0 0.00 0.00 0.00 45 1009.4
20260510003405 24 223 0.0 0.0 0.00 0.00 0.00 44 1009.2
20260510002905 25 223 0.0 0.0 0.00 0.00 0.00 43 1009.1
20260510001904 25 223 0.0 0.0 0.00 0.00 0.00 41 1008.9
20260510001405 25 220 0.0 1.6 0.00 0.00 0.00 40 1009.0
20260510000904 26 235 0.0 0.0 0.00 0.00 0.00 40 1009.0
20260510000406 26 232 0.0 1.6 0.00 0.00 0.00 39 1009.0
20260509235405 26 264 0.0 1.6 0.00 0.00 0.00 39 1009.0
20260509234905 26 302 0.0 1.6 0.00 0.00 0.00 38 1009.0
20260509234404 26 246 0.0 0.0 0.00 0.00 0.00 38 1008.9
20260509233904 26 267 0.0 1.6 0.00 0.00 0.00 37 1009.0
20260509233405 26 258 0.0 14.5 0.00 0.00 0.00 36 1009.0
20260509232404 27 233 0.0 3.2 0.00 0.00 0.00 36 1009.0
20260509231404 27 252 0.0 1.6 0.00 0.00 0.00 37 1009.0
20260509230905 27 248 0.0 1.6 0.00 0.00 0.00 37 1008.9
20260509230405 27 323 0.0 9.7 0.00 0.00 0.00 35 1008.9
20260509225904 27 304 6.4 16.1 0.00 0.00 0.00 35 1008.9
20260509225404 27 291 0.0 19.3 0.00 0.00 0.00 35 1008.9
20260509224905 26 288 0.0 19.3 0.00 0.00 0.00 36 1008.8
20260509224405 26 320 1.6 14.5 0.00 0.00 0.00 35 1008.8
20260509223904 27 349 1.6 19.3 0.00 0.00 0.00 34 1008.8
20260509223405 27 308 1.6 11.3 0.00 0.00 0.00 35 1008.6
20260509222905 27 314 0.0 3.2 0.00 0.00 0.00 36 1008.6
20260509222404 27 304 1.6 3.2 0.00 0.00 0.00 34 1008.6
20260509221905 27 319 0.0 3.2 0.00 0.00 0.00 33 1008.6
20260509221404 27 227 1.6 8.0 0.00 0.00 0.00 33 1008.5
20260509220904 27 329 0.0 11.3 0.00 0.00 0.00 34 1008.5
20260509220405 27 330 0.0 1.6 0.00 0.00 0.00 34 1008.4
20260509215904 27 297 0.0 4.8 0.00 0.00 0.00 34 1008.4
20260509215404 27 298 0.0 4.8 0.00 0.00 0.00 35 1008.4
20260509214904 27 250 0.0 3.2 0.00 0.00 0.00 34 1008.4
20260509213904 27 293 0.0 1.6 0.00 0.00 0.00 33 1008.4
20260509213404 27 235 1.6 3.2 0.00 0.00 0.00 35 1008.5
20260509212904 27 239 0.0 1.6 0.00 0.00 0.00 35 1008.4
20260509211905 28 279 1.6 3.2 0.00 0.00 0.00 37 1008.5
20260509211405 28 238 0.0 1.6 0.00 0.00 0.00 41 1008.6
20260509205404 27 138 1.6 19.3 0.00 0.00 0.00 43 1008.7
20260509204904 27 164 0.0 3.2 0.00 0.00 0.00 43 1008.8
20260509204404 27 291 0.0 3.2 0.00 0.00 0.00 42 1008.9
20260509203904 27 182 3.2 16.1 0.00 0.00 0.00 44 1008.9
20260509203405 26 170 0.0 1.6 0.00 0.00 0.00 47 1009.0
20260509202905 26 165 0.0 14.5 0.00 0.00 0.00 47 1009.1
20260509202405 26 232 0.0 8.0 0.00 0.00 0.00 48 1009.1
20260509201904 26 247 1.6 11.3 0.00 0.00 0.00 48 1009.2
20260509201405 26 274 0.0 3.2 0.00 0.00 0.00 50 1009.3
20260509195404 25 264 0.0 1.6 0.00 0.00 0.00 48 1009.5
20260509194904 25 243 1.6 19.3 0.00 0.00 0.00 49 1009.5
20260509194404 25 149 4.8 19.3 0.00 0.00 0.00 48 1009.6
20260509193905 25 149 1.6 3.2 0.00 0.00 0.00 49 1009.6